Year,Month,Day,Hour,Minute,Value (Times are PST for temperature in C)
2018,08,23,00,00,15.00
2018,08,23,00,01,15.00
2018,08,23,00,02,15.00
2018,08,23,00,03,15.00
2018,08,23,00,04,15.00
2018,08,23,00,05,15.00
2018,08,23,00,06,15.00
2018,08,23,00,07,15.00
2018,08,23,00,08,14.90
2018,08,23,00,09,14.90
2018,08,23,00,10,14.90
2018,08,23,00,11,14.90
2018,08,23,00,12,14.90
2018,08,23,00,13,14.90
2018,08,23,00,14,14.90
2018,08,23,00,15,14.90
2018,08,23,00,16,14.90
2018,08,23,00,17,14.90
2018,08,23,00,18,14.90
2018,08,23,00,19,14.90
2018,08,23,00,20,14.80
2018,08,23,00,21,14.80
2018,08,23,00,22,14.80
2018,08,23,00,23,14.80
2018,08,23,00,24,14.80
2018,08,23,00,25,14.80
2018,08,23,00,26,14.80
2018,08,23,00,27,14.80
2018,08,23,00,28,14.80
2018,08,23,00,29,14.80
2018,08,23,00,30,14.80
2018,08,23,00,31,14.70
2018,08,23,00,32,14.70
2018,08,23,00,33,14.70
2018,08,23,00,34,14.70
2018,08,23,00,35,14.70
2018,08,23,00,36,14.70
2018,08,23,00,37,14.70
2018,08,23,00,38,14.70
2018,08,23,00,39,14.70
2018,08,23,00,40,14.70
2018,08,23,00,41,14.70
2018,08,23,00,42,14.60
2018,08,23,00,43,14.60
2018,08,23,00,44,14.70
2018,08,23,00,45,14.70
2018,08,23,00,46,14.70
2018,08,23,00,47,14.70
2018,08,23,00,48,14.70
2018,08,23,00,49,14.70
2018,08,23,00,50,14.70
2018,08,23,00,51,14.70
2018,08,23,00,52,14.70
2018,08,23,00,53,14.70
2018,08,23,00,54,14.80
2018,08,23,00,55,14.80
2018,08,23,00,56,14.80
2018,08,23,00,57,14.80
2018,08,23,00,58,14.80
2018,08,23,00,59,14.70
2018,08,23,01,00,14.70
2018,08,23,01,01,14.70
2018,08,23,01,02,14.70
2018,08,23,01,03,14.70
2018,08,23,01,04,14.70
2018,08,23,01,05,14.70
2018,08,23,01,06,14.70
2018,08,23,01,07,14.70
2018,08,23,01,08,14.70
2018,08,23,01,09,14.70
2018,08,23,01,10,14.70
2018,08,23,01,11,14.70
2018,08,23,01,12,14.70
2018,08,23,01,13,14.60
2018,08,23,01,14,14.60
2018,08,23,01,15,14.60
2018,08,23,01,16,14.60
2018,08,23,01,17,14.60
2018,08,23,01,18,14.60
2018,08,23,01,19,14.60
2018,08,23,01,20,14.60
2018,08,23,01,21,14.60
2018,08,23,01,22,14.60
2018,08,23,01,23,14.60
2018,08,23,01,24,14.60
2018,08,23,01,25,14.60
2018,08,23,01,26,14.60
2018,08,23,01,27,14.60
2018,08,23,01,28,14.60
2018,08,23,01,29,14.60
2018,08,23,01,30,14.50
2018,08,23,01,31,14.50
2018,08,23,01,32,14.50
2018,08,23,01,33,14.50
2018,08,23,01,34,14.50
2018,08,23,01,35,14.50
2018,08,23,01,36,14.50
2018,08,23,01,37,14.40
2018,08,23,01,38,14.40
2018,08,23,01,39,14.40
2018,08,23,01,40,14.40
2018,08,23,01,41,14.40
2018,08,23,01,42,14.40
2018,08,23,01,43,14.40
2018,08,23,01,44,14.40
2018,08,23,01,45,14.40
2018,08,23,01,46,14.40
2018,08,23,01,47,14.40
2018,08,23,01,48,14.40
2018,08,23,01,49,14.40
2018,08,23,01,50,14.40
2018,08,23,01,51,14.40
2018,08,23,01,52,14.40
2018,08,23,01,53,14.40
2018,08,23,01,54,14.40
2018,08,23,01,55,14.40
2018,08,23,01,56,14.40
2018,08,23,01,57,14.50
2018,08,23,01,58,14.40
2018,08,23,01,59,14.40
2018,08,23,02,00,14.40
2018,08,23,02,01,14.40
2018,08,23,02,02,14.40
2018,08,23,02,03,14.40
2018,08,23,02,04,14.40
2018,08,23,02,05,14.40
2018,08,23,02,06,14.40
2018,08,23,02,07,14.40
2018,08,23,02,08,14.40
2018,08,23,02,09,14.40
2018,08,23,02,10,14.40
2018,08,23,02,11,14.40
2018,08,23,02,12,14.40
2018,08,23,02,13,14.40
2018,08,23,02,14,14.40
2018,08,23,02,15,14.40
2018,08,23,02,16,14.40
2018,08,23,02,17,14.40
2018,08,23,02,18,14.40
2018,08,23,02,19,14.40
2018,08,23,02,20,14.30
2018,08,23,02,21,14.30
2018,08,23,02,22,14.30
2018,08,23,02,23,14.30
2018,08,23,02,24,14.30
2018,08,23,02,25,14.30
2018,08,23,02,26,14.20
2018,08,23,02,27,14.20
2018,08,23,02,28,14.20
2018,08,23,02,29,14.20
2018,08,23,02,30,14.20
2018,08,23,02,31,14.10
2018,08,23,02,32,14.10
2018,08,23,02,33,14.10
2018,08,23,02,34,14.10
2018,08,23,02,35,14.10
2018,08,23,02,36,14.10
2018,08,23,02,37,14.10
2018,08,23,02,38,14.10
2018,08,23,02,39,14.00
2018,08,23,02,40,14.00
2018,08,23,02,41,14.00
2018,08,23,02,42,14.00
2018,08,23,02,43,14.00
2018,08,23,02,44,14.00
2018,08,23,02,45,14.00
2018,08,23,02,46,14.00
2018,08,23,02,47,14.00
2018,08,23,02,48,14.00
2018,08,23,02,49,14.00
2018,08,23,02,50,14.00
2018,08,23,02,51,14.10
2018,08,23,02,52,14.10
2018,08,23,02,53,14.10
2018,08,23,02,54,14.10
2018,08,23,02,55,14.10
2018,08,23,02,56,14.10
2018,08,23,02,57,14.10
2018,08,23,02,58,14.10
2018,08,23,02,59,14.10
2018,08,23,03,00,14.10
2018,08,23,03,01,14.10
2018,08,23,03,02,14.10
2018,08,23,03,03,14.10
2018,08,23,03,04,14.10
2018,08,23,03,05,14.10
2018,08,23,03,06,14.10
2018,08,23,03,07,14.00
2018,08,23,03,08,14.00
2018,08,23,03,09,14.00
2018,08,23,03,10,14.00
2018,08,23,03,11,14.00
2018,08,23,03,12,14.00
2018,08,23,03,13,14.00
2018,08,23,03,14,14.00
2018,08,23,03,15,14.00
2018,08,23,03,16,14.00
2018,08,23,03,17,14.00
2018,08,23,03,18,13.90
2018,08,23,03,19,13.90
2018,08,23,03,20,13.90
2018,08,23,03,21,13.90
2018,08,23,03,22,13.90
2018,08,23,03,23,13.90
2018,08,23,03,24,13.90
2018,08,23,03,25,13.90
2018,08,23,03,26,13.90
2018,08,23,03,27,13.90
2018,08,23,03,28,13.90
2018,08,23,03,29,13.90
2018,08,23,03,30,13.90
2018,08,23,03,31,13.90
2018,08,23,03,32,13.90
2018,08,23,03,33,13.80
2018,08,23,03,34,13.80
2018,08,23,03,35,13.80
2018,08,23,03,36,13.80
2018,08,23,03,37,13.80
2018,08,23,03,38,13.80
2018,08,23,03,39,13.80
2018,08,23,03,40,13.80
2018,08,23,03,41,13.80
2018,08,23,03,42,13.80
2018,08,23,03,43,13.80
2018,08,23,03,44,13.70
2018,08,23,03,45,13.70
2018,08,23,03,46,13.70
2018,08,23,03,47,13.70
2018,08,23,03,48,13.70
2018,08,23,03,49,13.70
2018,08,23,03,50,13.70
2018,08,23,03,51,13.70
2018,08,23,03,52,13.60
2018,08,23,03,53,13.60
2018,08,23,03,54,13.60
2018,08,23,03,55,13.60
2018,08,23,03,56,13.60
2018,08,23,03,57,13.60
2018,08,23,03,58,13.60
2018,08,23,03,59,13.60
2018,08,23,04,00,13.50
2018,08,23,04,01,13.50
2018,08,23,04,02,13.50
2018,08,23,04,03,13.50
2018,08,23,04,04,13.50
2018,08,23,04,05,13.50
2018,08,23,04,06,13.50
2018,08,23,04,07,13.50
2018,08,23,04,08,13.50
2018,08,23,04,09,13.50
2018,08,23,04,10,13.50
2018,08,23,04,11,13.50
2018,08,23,04,12,13.50
2018,08,23,04,13,13.60
2018,08,23,04,14,13.60
2018,08,23,04,15,13.60
2018,08,23,04,16,13.60
2018,08,23,04,17,13.70
2018,08,23,04,18,13.70
2018,08,23,04,19,13.70
2018,08,23,04,20,13.70
2018,08,23,04,21,13.70
2018,08,23,04,22,13.70
2018,08,23,04,23,13.70
2018,08,23,04,24,13.70
2018,08,23,04,25,13.80
2018,08,23,04,26,13.80
2018,08,23,04,27,13.80
2018,08,23,04,28,13.80
2018,08,23,04,29,13.80
2018,08,23,04,30,13.90
2018,08,23,04,31,13.90
2018,08,23,04,32,13.90
2018,08,23,04,33,13.90
2018,08,23,04,34,14.00
2018,08,23,04,35,14.10
2018,08,23,04,36,14.10
2018,08,23,04,37,14.10
2018,08,23,04,38,14.20
2018,08,23,04,39,14.20
2018,08,23,04,40,14.20
2018,08,23,04,41,14.30
2018,08,23,04,42,14.30
2018,08,23,04,43,14.30
2018,08,23,04,44,14.40
2018,08,23,04,45,14.40
2018,08,23,04,46,14.40
2018,08,23,04,47,14.40
2018,08,23,04,48,14.40
2018,08,23,04,49,14.40
2018,08,23,04,50,14.40
2018,08,23,04,51,14.50
2018,08,23,04,52,14.40
2018,08,23,04,53,14.40
2018,08,23,04,54,14.40
2018,08,23,04,55,14.40
2018,08,23,04,56,14.40
2018,08,23,04,57,14.40
2018,08,23,04,58,14.30
2018,08,23,04,59,14.30
2018,08,23,05,00,14.30
2018,08,23,05,01,14.30
2018,08,23,05,02,14.20
2018,08,23,05,03,14.20
2018,08,23,05,04,14.20
2018,08,23,05,05,14.10
2018,08,23,05,06,14.10
2018,08,23,05,07,14.10
2018,08,23,05,08,14.10
2018,08,23,05,09,14.10
2018,08,23,05,10,14.10
2018,08,23,05,11,14.10
2018,08,23,05,12,14.10
2018,08,23,05,13,14.10
2018,08,23,05,14,14.20
2018,08,23,05,15,14.20
2018,08,23,05,16,14.20
2018,08,23,05,17,14.20
2018,08,23,05,18,14.20
2018,08,23,05,19,14.20
2018,08,23,05,20,14.20
2018,08,23,05,21,14.20
2018,08,23,05,22,14.20
2018,08,23,05,23,14.10
2018,08,23,05,24,14.10
2018,08,23,05,25,14.30
2018,08,23,05,26,14.40
2018,08,23,05,27,14.60
2018,08,23,05,28,14.70
2018,08,23,05,29,14.80
2018,08,23,05,30,14.90
2018,08,23,05,31,15.00
2018,08,23,05,32,15.00
2018,08,23,05,33,15.00
2018,08,23,05,34,15.00
2018,08,23,05,35,15.00
2018,08,23,05,36,15.20
2018,08,23,05,37,15.30
2018,08,23,05,38,15.40
2018,08,23,05,39,15.50
2018,08,23,05,40,15.50
2018,08,23,05,41,15.60
2018,08,23,05,42,15.60
2018,08,23,05,43,15.60
2018,08,23,05,44,15.70
2018,08,23,05,45,15.70
2018,08,23,05,46,15.70
2018,08,23,05,47,15.60
2018,08,23,05,48,15.50
2018,08,23,05,49,15.40
2018,08,23,05,50,15.30
2018,08,23,05,51,15.20
2018,08,23,05,52,15.10
2018,08,23,05,53,15.00
2018,08,23,05,54,15.00
2018,08,23,05,55,14.90
2018,08,23,05,56,14.80
2018,08,23,05,57,14.70
2018,08,23,05,58,14.60
2018,08,23,05,59,14.50
2018,08,23,06,00,14.40
2018,08,23,06,01,14.30
2018,08,23,06,02,14.20
2018,08,23,06,03,14.10
2018,08,23,06,04,14.10
2018,08,23,06,05,14.00
2018,08,23,06,06,13.90
2018,08,23,06,07,13.90
2018,08,23,06,08,13.80
2018,08,23,06,09,13.80
2018,08,23,06,10,13.70
2018,08,23,06,11,13.70
2018,08,23,06,12,13.70
2018,08,23,06,13,13.60
2018,08,23,06,14,13.60
2018,08,23,06,15,13.50
2018,08,23,06,16,13.50
2018,08,23,06,17,13.50
2018,08,23,06,18,13.40
2018,08,23,06,19,13.40
2018,08,23,06,20,13.40
2018,08,23,06,21,13.30
2018,08,23,06,22,13.30
2018,08,23,06,23,13.30
2018,08,23,06,24,13.30
2018,08,23,06,25,13.20
2018,08,23,06,26,13.20
2018,08,23,06,27,13.20
2018,08,23,06,28,13.20
2018,08,23,06,29,13.10
2018,08,23,06,30,13.10
2018,08,23,06,31,13.10
2018,08,23,06,32,13.10
2018,08,23,06,33,13.00
2018,08,23,06,34,13.00
2018,08,23,06,35,13.00
2018,08,23,06,36,13.00
2018,08,23,06,37,12.90
2018,08,23,06,38,12.90
2018,08,23,06,39,12.90
2018,08,23,06,40,12.90
2018,08,23,06,41,12.90
2018,08,23,06,42,12.80
2018,08,23,06,43,12.80
2018,08,23,06,44,12.80
2018,08,23,06,45,12.80
2018,08,23,06,46,12.80
2018,08,23,06,47,12.70
2018,08,23,06,48,12.70
2018,08,23,06,49,12.70
2018,08,23,06,50,12.70
2018,08,23,06,51,12.70
2018,08,23,06,52,12.70
2018,08,23,06,53,12.70
2018,08,23,06,54,12.70
2018,08,23,06,55,12.70
2018,08,23,06,56,12.70
2018,08,23,06,57,12.70
2018,08,23,06,58,12.70
2018,08,23,06,59,12.70
2018,08,23,07,00,12.70
2018,08,23,07,01,12.70
2018,08,23,07,02,12.70
2018,08,23,07,03,12.70
2018,08,23,07,04,12.70
2018,08,23,07,05,12.70
2018,08,23,07,06,12.70
2018,08,23,07,07,12.70
2018,08,23,07,08,12.70
2018,08,23,07,09,12.70
2018,08,23,07,10,12.70
2018,08,23,07,11,12.70
2018,08,23,07,12,12.70
2018,08,23,07,13,12.70
2018,08,23,07,14,12.70
2018,08,23,07,15,12.80
2018,08,23,07,16,12.80
2018,08,23,07,17,12.80
2018,08,23,07,18,12.90
2018,08,23,07,19,12.90
2018,08,23,07,20,12.90
2018,08,23,07,21,12.90
2018,08,23,07,22,12.90
2018,08,23,07,23,12.90
2018,08,23,07,24,13.00
2018,08,23,07,25,13.00
2018,08,23,07,26,13.00
2018,08,23,07,27,13.00
2018,08,23,07,28,13.00
2018,08,23,07,29,13.00
2018,08,23,07,30,13.00
2018,08,23,07,31,13.10
2018,08,23,07,32,13.10
2018,08,23,07,33,13.10
2018,08,23,07,34,13.10
2018,08,23,07,35,13.10
2018,08,23,07,36,13.10
2018,08,23,07,37,13.20
2018,08,23,07,38,13.20
2018,08,23,07,39,13.20
2018,08,23,07,40,13.20
2018,08,23,07,41,13.30
2018,08,23,07,42,13.30
2018,08,23,07,43,13.30
2018,08,23,07,44,13.30
2018,08,23,07,45,13.30
2018,08,23,07,46,13.40
2018,08,23,07,47,13.50
2018,08,23,07,48,13.50
2018,08,23,07,49,13.60
2018,08,23,07,50,13.60
2018,08,23,07,51,13.60
2018,08,23,07,52,13.70
2018,08,23,07,53,13.70
2018,08,23,07,54,13.70
2018,08,23,07,55,13.80
2018,08,23,07,56,13.80
2018,08,23,07,57,13.80
2018,08,23,07,58,13.90
2018,08,23,07,59,13.90
2018,08,23,08,00,14.00
2018,08,23,08,01,14.00
2018,08,23,08,02,14.00
2018,08,23,08,03,14.10
2018,08,23,08,04,14.10
2018,08,23,08,05,14.20
2018,08,23,08,06,14.20
2018,08,23,08,07,14.20
2018,08,23,08,08,14.30
2018,08,23,08,09,14.30
2018,08,23,08,10,14.30
2018,08,23,08,11,14.40
2018,08,23,08,12,14.40
2018,08,23,08,13,14.40
2018,08,23,08,14,14.40
2018,08,23,08,15,14.40
2018,08,23,08,16,14.50
2018,08,23,08,17,14.50
2018,08,23,08,18,14.50
2018,08,23,08,19,14.50
2018,08,23,08,20,14.40
2018,08,23,08,21,14.40
2018,08,23,08,22,14.40
2018,08,23,08,23,14.40
2018,08,23,08,24,14.40
2018,08,23,08,25,14.40
2018,08,23,08,26,14.40
2018,08,23,08,27,14.40
2018,08,23,08,28,14.40
2018,08,23,08,29,14.40
2018,08,23,08,30,14.40
2018,08,23,08,31,14.40
2018,08,23,08,32,14.40
2018,08,23,08,33,14.50
2018,08,23,08,34,14.50
2018,08,23,08,35,14.50
2018,08,23,08,36,14.50
2018,08,23,08,37,14.50
2018,08,23,08,38,14.50
2018,08,23,08,39,14.50
2018,08,23,08,40,14.50
2018,08,23,08,41,14.50
2018,08,23,08,42,14.60
2018,08,23,08,43,14.60
2018,08,23,08,44,14.60
2018,08,23,08,45,14.60
2018,08,23,08,46,14.60
2018,08,23,08,47,14.60
2018,08,23,08,48,14.60
2018,08,23,08,49,14.70
2018,08,23,08,50,14.70
2018,08,23,08,51,14.70
2018,08,23,08,52,14.80
2018,08,23,08,53,14.80
2018,08,23,08,54,14.90
2018,08,23,08,55,14.90
2018,08,23,08,56,15.00
2018,08,23,08,57,15.00
2018,08,23,08,58,15.00
2018,08,23,08,59,15.00
2018,08,23,09,00,15.00
2018,08,23,09,01,15.00
2018,08,23,09,02,15.00
2018,08,23,09,03,15.00
2018,08,23,09,04,15.10
2018,08,23,09,05,15.10
2018,08,23,09,06,15.20
2018,08,23,09,07,15.20
2018,08,23,09,08,15.30
2018,08,23,09,09,15.30
2018,08,23,09,10,15.30
2018,08,23,09,11,15.30
2018,08,23,09,12,15.30
2018,08,23,09,13,15.30
2018,08,23,09,14,15.30
2018,08,23,09,15,15.20
2018,08,23,09,16,15.20
2018,08,23,09,17,15.20
2018,08,23,09,18,15.20
2018,08,23,09,19,15.10
2018,08,23,09,20,15.10
2018,08,23,09,21,15.10
2018,08,23,09,22,15.10
2018,08,23,09,23,15.10
2018,08,23,09,24,15.10
2018,08,23,09,25,15.00
2018,08,23,09,26,15.00
2018,08,23,09,27,15.00
2018,08,23,09,28,15.00
2018,08,23,09,29,15.00
2018,08,23,09,30,15.00
2018,08,23,09,31,15.00
2018,08,23,09,32,15.00
2018,08,23,09,33,15.00
2018,08,23,09,34,15.00
2018,08,23,09,35,15.00
2018,08,23,09,36,15.00
2018,08,23,09,37,15.00
2018,08,23,09,38,15.00
2018,08,23,09,39,15.00
2018,08,23,09,40,15.00
2018,08,23,09,41,15.00
2018,08,23,09,42,15.00
2018,08,23,09,43,15.00
2018,08,23,09,44,15.00
2018,08,23,09,45,15.00
2018,08,23,09,46,15.00
2018,08,23,09,47,15.00
2018,08,23,09,48,15.00
2018,08,23,09,49,15.00
2018,08,23,09,50,15.00
2018,08,23,09,51,15.00
2018,08,23,09,52,15.00
2018,08,23,09,53,15.00
2018,08,23,09,54,15.00
2018,08,23,09,55,15.00
2018,08,23,09,56,15.00
2018,08,23,09,57,15.00
2018,08,23,09,58,15.00
2018,08,23,09,59,14.90
2018,08,23,10,00,14.90
2018,08,23,10,01,14.80
2018,08,23,10,02,14.80
2018,08,23,10,03,14.80
2018,08,23,10,04,14.80
2018,08,23,10,05,14.80
2018,08,23,10,06,14.80
2018,08,23,10,07,14.80
2018,08,23,10,08,14.80
2018,08,23,10,09,14.80
2018,08,23,10,10,14.80
2018,08,23,10,11,14.90
2018,08,23,10,12,14.90
2018,08,23,10,13,14.90
2018,08,23,10,14,14.90
2018,08,23,10,15,14.90
2018,08,23,10,16,14.90
2018,08,23,10,17,14.80
2018,08,23,10,18,14.80
2018,08,23,10,19,14.80
2018,08,23,10,20,14.80
2018,08,23,10,21,14.80
2018,08,23,10,22,14.70
2018,08,23,10,23,14.70
2018,08,23,10,24,14.70
2018,08,23,10,25,14.70
2018,08,23,10,26,14.70
2018,08,23,10,27,14.60
2018,08,23,10,28,14.60
2018,08,23,10,29,14.60
2018,08,23,10,30,14.60
2018,08,23,10,31,14.60
2018,08,23,10,32,14.70
2018,08,23,10,33,14.70
2018,08,23,10,34,14.70
2018,08,23,10,35,14.80
2018,08,23,10,36,14.80
2018,08,23,10,37,14.80
2018,08,23,10,38,14.90
2018,08,23,10,39,14.90
2018,08,23,10,40,15.00
2018,08,23,10,41,15.00
2018,08,23,10,42,15.00
2018,08,23,10,43,15.00
2018,08,23,10,44,15.00
2018,08,23,10,45,15.00
2018,08,23,10,46,15.00
2018,08,23,10,47,15.00
2018,08,23,10,48,15.00
2018,08,23,10,49,15.00
2018,08,23,10,50,15.00
2018,08,23,10,51,15.00
2018,08,23,10,52,15.00
2018,08,23,10,53,15.00
2018,08,23,10,54,15.00
2018,08,23,10,55,15.00
2018,08,23,10,56,15.00
2018,08,23,10,57,15.00
2018,08,23,10,58,15.00
2018,08,23,10,59,15.00
2018,08,23,11,00,15.10
2018,08,23,11,01,15.20
2018,08,23,11,02,15.20
2018,08,23,11,03,15.30
2018,08,23,11,04,15.40
2018,08,23,11,05,15.50
2018,08,23,11,06,15.60
2018,08,23,11,07,15.70
2018,08,23,11,08,15.70
2018,08,23,11,09,15.80
2018,08,23,11,10,15.90
2018,08,23,11,11,16.00
2018,08,23,11,12,16.10
2018,08,23,11,13,16.20
2018,08,23,11,14,16.30
2018,08,23,11,15,16.30
2018,08,23,11,16,16.30
2018,08,23,11,17,16.30
2018,08,23,11,18,16.30
2018,08,23,11,19,16.30
2018,08,23,11,20,16.30
2018,08,23,11,21,16.20
2018,08,23,11,22,16.20
2018,08,23,11,23,16.20
2018,08,23,11,24,16.20
2018,08,23,11,25,16.20
2018,08,23,11,26,16.20
2018,08,23,11,27,16.20
2018,08,23,11,28,16.20
2018,08,23,11,29,16.20
2018,08,23,11,30,16.20
2018,08,23,11,31,16.20
2018,08,23,11,32,16.20
2018,08,23,11,33,16.20
2018,08,23,11,34,16.20
2018,08,23,11,35,16.30
2018,08,23,11,36,16.30
2018,08,23,11,37,16.40
2018,08,23,11,38,16.40
2018,08,23,11,39,16.40
2018,08,23,11,40,16.40
2018,08,23,11,41,16.40
2018,08,23,11,42,16.40
2018,08,23,11,43,16.40
2018,08,23,11,44,16.50
2018,08,23,11,45,16.50
2018,08,23,11,46,16.50
2018,08,23,11,47,16.60
2018,08,23,11,48,16.60
2018,08,23,11,49,16.60
2018,08,23,11,50,16.70
2018,08,23,11,51,16.70
2018,08,23,11,52,16.70
2018,08,23,11,53,16.70
2018,08,23,11,54,16.70
2018,08,23,11,55,16.70
2018,08,23,11,56,16.70
2018,08,23,11,57,16.70
2018,08,23,11,58,16.70
2018,08,23,11,59,16.70
2018,08,23,12,00,16.70
2018,08,23,12,01,16.70
2018,08,23,12,02,16.60
2018,08,23,12,03,16.60
2018,08,23,12,04,16.60
2018,08,23,12,05,16.50
2018,08,23,12,06,16.50
2018,08,23,12,07,16.40
2018,08,23,12,08,16.30
2018,08,23,12,09,16.20
2018,08,23,12,10,16.10
2018,08,23,12,11,16.10
2018,08,23,12,12,16.10
2018,08,23,12,13,16.00
2018,08,23,12,14,16.00
2018,08,23,12,15,16.00
2018,08,23,12,16,16.00
2018,08,23,12,17,16.00
2018,08,23,12,18,16.00
2018,08,23,12,19,16.00
2018,08,23,12,20,16.00
2018,08,23,12,21,16.00
2018,08,23,12,22,15.90
2018,08,23,12,23,15.90
2018,08,23,12,24,15.80
2018,08,23,12,25,15.70
2018,08,23,12,26,15.60
2018,08,23,12,27,15.60
2018,08,23,12,28,15.50
2018,08,23,12,29,15.50
2018,08,23,12,30,15.40
2018,08,23,12,31,15.40
2018,08,23,12,32,15.30
2018,08,23,12,33,15.30
2018,08,23,12,34,15.30
2018,08,23,12,35,15.30
2018,08,23,12,36,15.20
2018,08,23,12,37,15.20
2018,08,23,12,38,15.20
2018,08,23,12,39,15.20
2018,08,23,12,40,15.20
2018,08,23,12,41,15.20
2018,08,23,12,42,15.20
2018,08,23,12,43,15.20
2018,08,23,12,44,15.30
2018,08,23,12,45,15.30
2018,08,23,12,46,15.40
2018,08,23,12,47,15.40
2018,08,23,12,48,15.40
2018,08,23,12,49,15.50
2018,08,23,12,50,15.50
2018,08,23,12,51,15.50
2018,08,23,12,52,15.60
2018,08,23,12,53,15.60
2018,08,23,12,54,15.70
2018,08,23,12,55,15.60
2018,08,23,12,56,15.70
2018,08,23,12,57,15.70
2018,08,23,12,58,15.70
2018,08,23,12,59,15.80
2018,08,23,13,00,15.80
2018,08,23,13,01,15.80
2018,08,23,13,02,15.90
2018,08,23,13,03,16.00
2018,08,23,13,04,16.10
2018,08,23,13,05,16.10
2018,08,23,13,06,16.10
2018,08,23,13,07,16.10
2018,08,23,13,08,16.10
2018,08,23,13,09,16.10
2018,08,23,13,10,16.10
2018,08,23,13,11,16.10
2018,08,23,13,12,16.10
2018,08,23,13,13,16.20
2018,08,23,13,14,16.20
2018,08,23,13,15,16.30
2018,08,23,13,16,16.30
2018,08,23,13,17,16.40
2018,08,23,13,18,16.50
2018,08,23,13,19,16.50
2018,08,23,13,20,16.40
2018,08,23,13,21,16.40
2018,08,23,13,22,16.40
2018,08,23,13,23,16.30
2018,08,23,13,24,16.30
2018,08,23,13,25,16.20
2018,08,23,13,26,16.20
2018,08,23,13,27,16.20
2018,08,23,13,28,16.20
2018,08,23,13,29,16.10
2018,08,23,13,30,16.10
2018,08,23,13,31,16.10
2018,08,23,13,32,16.10
2018,08,23,13,33,16.00
2018,08,23,13,34,15.90
2018,08,23,13,35,15.90
2018,08,23,13,36,15.80
2018,08,23,13,37,15.80
2018,08,23,13,38,15.70
2018,08,23,13,39,15.70
2018,08,23,13,40,15.70
2018,08,23,13,41,15.60
2018,08,23,13,42,15.60
2018,08,23,13,43,15.60
2018,08,23,13,44,15.60
2018,08,23,13,45,15.60
2018,08,23,13,46,15.60
2018,08,23,13,47,15.60
2018,08,23,13,48,15.60
2018,08,23,13,49,15.60
2018,08,23,13,50,15.60
2018,08,23,13,51,15.60
2018,08,23,13,52,15.60
2018,08,23,13,53,15.60
2018,08,23,13,54,15.70
2018,08,23,13,55,15.80
2018,08,23,13,56,15.80
2018,08,23,13,57,15.80
2018,08,23,13,58,15.80
2018,08,23,13,59,15.80
2018,08,23,14,00,15.80
2018,08,23,14,01,15.80
2018,08,23,14,02,15.70
2018,08,23,14,03,15.70
2018,08,23,14,04,15.70
2018,08,23,14,05,15.70
2018,08,23,14,06,15.60
2018,08,23,14,07,15.60
2018,08,23,14,08,15.50
2018,08,23,14,09,15.50
2018,08,23,14,10,15.40
2018,08,23,14,11,15.40
2018,08,23,14,12,15.40
2018,08,23,14,13,15.40
2018,08,23,14,14,15.40
2018,08,23,14,15,15.50
2018,08,23,14,16,15.50
2018,08,23,14,17,15.50
2018,08,23,14,18,15.60
2018,08,23,14,19,15.60
2018,08,23,14,20,15.60
2018,08,23,14,21,15.60
2018,08,23,14,22,15.60
2018,08,23,14,23,15.60
2018,08,23,14,24,15.70
2018,08,23,14,25,15.70
2018,08,23,14,26,15.80
2018,08,23,14,27,15.80
2018,08,23,14,28,15.80
2018,08,23,14,29,15.80
2018,08,23,14,30,15.80
2018,08,23,14,31,15.80
2018,08,23,14,32,15.90
2018,08,23,14,33,16.00
2018,08,23,14,34,16.10
2018,08,23,14,35,16.10
2018,08,23,14,36,16.20
2018,08,23,14,37,16.20
2018,08,23,14,38,16.30
2018,08,23,14,39,16.30
2018,08,23,14,40,16.40
2018,08,23,14,41,16.50
2018,08,23,14,42,16.50
2018,08,23,14,43,16.60
2018,08,23,14,44,16.60
2018,08,23,14,45,16.60
2018,08,23,14,46,16.60
2018,08,23,14,47,16.60
2018,08,23,14,48,16.60
2018,08,23,14,49,16.70
2018,08,23,14,50,16.70
2018,08,23,14,51,16.70
2018,08,23,14,52,16.60
2018,08,23,14,53,16.60
2018,08,23,14,54,16.60
2018,08,23,14,55,16.60
2018,08,23,14,56,16.70
2018,08,23,14,57,16.80
2018,08,23,14,58,16.80
2018,08,23,14,59,16.90
2018,08,23,15,00,16.90
2018,08,23,15,01,16.90
2018,08,23,15,02,16.80
2018,08,23,15,03,16.80
2018,08,23,15,04,16.80
2018,08,23,15,05,16.80
2018,08,23,15,06,16.80
2018,08,23,15,07,16.80
2018,08,23,15,08,16.90
2018,08,23,15,09,17.00
2018,08,23,15,10,17.00
2018,08,23,15,11,17.10
2018,08,23,15,12,17.20
2018,08,23,15,13,17.20
2018,08,23,15,14,17.30
2018,08,23,15,15,17.30
2018,08,23,15,16,17.20
2018,08,23,15,17,17.20
2018,08,23,15,18,17.10
2018,08,23,15,19,17.00
2018,08,23,15,20,16.90
2018,08,23,15,21,16.90
2018,08,23,15,22,17.00
2018,08,23,15,23,17.00
2018,08,23,15,24,17.00
2018,08,23,15,25,17.00
2018,08,23,15,26,17.10
2018,08,23,15,27,17.20
2018,08,23,15,28,17.20
2018,08,23,15,29,17.20
2018,08,23,15,30,17.30
2018,08,23,15,31,17.30
2018,08,23,15,32,17.30
2018,08,23,15,33,17.30
2018,08,23,15,34,17.30
2018,08,23,15,35,17.30
2018,08,23,15,36,17.20
2018,08,23,15,37,17.10
2018,08,23,15,38,17.00
2018,08,23,15,39,16.80
2018,08,23,15,40,16.70
2018,08,23,15,41,16.70
2018,08,23,15,42,16.70
2018,08,23,15,43,16.70
2018,08,23,15,44,16.70
2018,08,23,15,45,16.70
2018,08,23,15,46,16.70
2018,08,23,15,47,16.80
2018,08,23,15,48,16.80
2018,08,23,15,49,16.80
2018,08,23,15,50,16.90
2018,08,23,15,51,16.90
2018,08,23,15,52,17.00
2018,08,23,15,53,17.00
2018,08,23,15,54,17.00
2018,08,23,15,55,17.00
2018,08,23,15,56,16.90
2018,08,23,15,57,16.90
2018,08,23,15,58,16.90
2018,08,23,15,59,16.80
2018,08,23,16,00,16.80
2018,08,23,16,01,16.80
2018,08,23,16,02,16.70
2018,08,23,16,03,16.60
2018,08,23,16,04,16.50
2018,08,23,16,05,16.50
2018,08,23,16,06,16.40
2018,08,23,16,07,16.40
2018,08,23,16,08,16.40
2018,08,23,16,09,16.40
2018,08,23,16,10,16.40
2018,08,23,16,11,16.40
2018,08,23,16,12,16.40
2018,08,23,16,13,16.40
2018,08,23,16,14,16.40
2018,08,23,16,15,16.40
2018,08,23,16,16,16.40
2018,08,23,16,17,16.40
2018,08,23,16,18,16.50
2018,08,23,16,19,16.50
2018,08,23,16,20,16.50
2018,08,23,16,21,16.60
2018,08,23,16,22,16.50
2018,08,23,16,23,16.50
2018,08,23,16,24,16.50
2018,08,23,16,25,16.50
2018,08,23,16,26,16.40
2018,08,23,16,27,16.40
2018,08,23,16,28,16.40
2018,08,23,16,29,16.40
2018,08,23,16,30,16.30
2018,08,23,16,31,16.40
2018,08,23,16,32,16.40
2018,08,23,16,33,16.50
2018,08,23,16,34,16.60
2018,08,23,16,35,16.70
2018,08,23,16,36,16.80
2018,08,23,16,37,17.00
2018,08,23,16,38,17.10
2018,08,23,16,39,17.20
2018,08,23,16,40,17.40
2018,08,23,16,41,17.50
2018,08,23,16,42,17.60
2018,08,23,16,43,17.70
2018,08,23,16,44,17.80
2018,08,23,16,45,17.80
2018,08,23,16,46,17.90
2018,08,23,16,47,17.90
2018,08,23,16,48,17.90
2018,08,23,16,49,17.90
2018,08,23,16,50,18.00
2018,08,23,16,51,18.00
2018,08,23,16,52,18.10
2018,08,23,16,53,18.20
2018,08,23,16,54,18.30
2018,08,23,16,55,18.40
2018,08,23,16,56,18.50
2018,08,23,16,57,18.50
2018,08,23,16,58,18.60
2018,08,23,16,59,18.70
2018,08,23,17,00,18.70
2018,08,23,17,01,18.80
2018,08,23,17,02,18.80
2018,08,23,17,03,18.80
2018,08,23,17,04,18.90
2018,08,23,17,05,18.90
2018,08,23,17,06,19.00
2018,08,23,17,07,19.00
2018,08,23,17,08,19.00
2018,08,23,17,09,18.90
2018,08,23,17,10,18.90
2018,08,23,17,11,18.80
2018,08,23,17,12,18.80
2018,08,23,17,13,18.70
2018,08,23,17,14,18.60
2018,08,23,17,15,18.60
2018,08,23,17,16,18.60
2018,08,23,17,17,18.60
2018,08,23,17,18,18.60
2018,08,23,17,19,18.70